Regional Weather Roundup
Issued by NWS

Current Version | Previous Version | Text Only | Print | Product List | Glossary On
Versions: 1 2 3 4 5 6 7 8 9 10 11 12 13 14 15 16 17 18 19 20 21 22 23 24 25 26 27 28 29 30 31 32 33 34 35 36 37 38 39 40 41 42 43 44 45 46 47 48 49 50
000
ASUS43 KFSD 030010
RWRSD

WEATHER ROUNDUP FOR SOUTH DAKOTA
NATIONAL WEATHER SERVICE SIOUX FALLS SD
700 PM CDT WED SEP 02 2015

NOTE: "FAIR" INDICATES FEW OR NO CLOUDS BELOW 12,000 FEET WITH NO
SIGNIFICANT WEATHER AND/OR OBSTRUCTIONS TO VISIBILITY.


SDZ001>005-009-010-012>017-030100-
NORTHWEST AND NORTH CENTRAL SOUTH DAKOTA

CITY           SKY/WX    TMP DP  RH WIND       PRES   REMARKS
BUFFALO          N/A     92  48  22 SE7       29.69S
FAITH            N/A     93  54  26 SE8       29.73F
MOBRIDGE       SUNNY     89  72  56 SE13      29.70R HX  96
$$

SDZ012>016-024>037-041>051-057-063-072>074-030100-
SOUTHWEST AND SOUTH CENTRAL SOUTH DAKOTA

CITY           SKY/WX    TMP DP  RH WIND       PRES   REMARKS
RAPID CTY ARPT SUNNY     93  49  22 SW5       29.76S
PIERRE         SUNNY     91  70  49 E7        29.69S HX  96
CUSTER         SUNNY     86  30  13 VRB5      29.97S
ELLSWORTH AFB  SUNNY     95  49  21 NE10      29.76S
PHILIP         SUNNY     93  60  33 S7        29.70F
PINE RIDGE     SUNNY     91  49  23 S8        29.81F
WINNER         FAIR      94  57  28 SE9       29.73F
$$

SDZ004>011-016>023-039-040-030100-
NORTHEAST SOUTH DAKOTA

CITY           SKY/WX    TMP DP  RH WIND       PRES   REMARKS
ABERDEEN       MOSUNNY   87  74  64 SE7       29.74S HX  95
WATERTOWN      MOSUNNY   85  73  67 SE12      29.80S
BROOKINGS      PTSUNNY   82  72  69 SE10      29.83S
SISSETON         N/A     83  73  72 SE10      29.78R
$$

SDZ017-020-022-023-036>040-048>070-030100-
SOUTHEAST SOUTH DAKOTA

CITY           SKY/WX    TMP DP  RH WIND       PRES   REMARKS
SIOUX FALLS    MOSUNNY   83  73  72 S15       29.80F
HURON          SUNNY     87  75  67 SE6       29.73S HX  96
CHAMBERLAIN    SUNNY     88  74  63 SE7       29.72S HX  96
MITCHELL       SUNNY     88  76  67 SE10      29.74S HX  99
YANKTON        SUNNY     86  72  62 SE9       29.77S
$$

ABBREVIATIONS USED IN REMARKS
   TC - TEMPERATURE IN CELSIUS
  WCI - WIND CHILL INDEX
   HX - HEAT INDEX
  VSB - VISIBILITY




USA.gov is the U.S. government's official web portal to all federal, state and local government web resources and services.